Flag for Vietnam Weather past 2 weeks in Da Nang, Vietnam

Now
81 °F

Passing clouds.


Feels Like: 87 °F
Forecast: 80 / 90 °F
Wind: 6 mph from Southwest

Location: Da Nang Airport

Current Time: Jul 26, 2014 at 10:21:08 PM

Latest Report: Jul 26, 2014 at 10:00 PM


Visibility: N/A

Pressure: 29.80 "Hg

Humidity: 89%

Dew point: 77 °F

Location of Da NangLocation

Historic Weather in Da Nang — Graph

°F

Da Nang temperature yesterday

Maximum temperature yesterday: 99 °F (at 11:30 AM)
Minimum temperature yesterday: 81 °F (at 3:30 AM)
Average temperature yesterday: 88 °F

Past Weeks' High & Low Weather Summary

 TemperatureHumidityPressure
High99 °F (Jul 25, 11:30 AM)94% (Jul 12, 8:00 PM)29.80 "Hg (Jul 12, 8:00 PM)
Low77 °F (Jul 13, 1:00 AM)44% (Jul 20, 10:00 AM)29.53 "Hg (Jul 17, 3:00 PM)
Average85 °F73%29.68 "Hg
* Reported Jul 11 9:00 PM — Jul 26 9:00 PM, Da Nang, Weather by CustomWeather, © 2014

Note: Actual official high and low records may vary slightly from our data, if they occured in-between our weather recording intervals... More about our weather records

Advertising

Da Nang weather history for previous 24 hours

 ConditionsComfort  
Time TempWeatherWind HumidityBarometerVisibility
9:00 PM
Jul 26
81 °FPassing clouds.2 mph89%29.77 "HgN/A
8:30 PM81 °FPassing clouds.No wind89%29.77 "HgN/A
8:00 PM81 °FPassing clouds.3 mph89%29.77 "HgN/A
7:30 PM81 °FPassing clouds.2 mph89%29.77 "HgN/A
7:00 PM81 °FPassing clouds.1 mph89%29.74 "HgN/A
6:30 PM82 °FPassing clouds.3 mph84%29.74 "HgN/A
6:00 PM82 °FPartly sunny.2 mph79%29.74 "HgN/A
5:30 PM82 °FPartly sunny.3 mph84%29.74 "HgN/A
5:00 PM82 °FPartly sunny.3 mph84%29.71 "HgN/A
4:30 PM81 °FPartly sunny.5 mph89%29.71 "Hg5 mi
4:00 PM81 °FLight rain. Partly sunny.6 mph84%29.71 "Hg5 mi
3:30 PM82 °FThunderstorms. Broken clouds.5 mph84%29.71 "Hg3 mi
3:00 PM82 °FThunderstorms. Broken clouds.12 mph74%29.71 "Hg4 mi
2:30 PM90 °FThunderstorms. Broken clouds.8 mph59%29.74 "Hg4 mi
2:00 PM95 °FThunderstorms. Scattered clouds.7 mph56%29.71 "HgN/A
1:30 PM95 °FScattered clouds.7 mph53%29.71 "HgN/A
1:00 PM93 °FScattered clouds.8 mph56%29.71 "HgN/A
12:30 PM95 °FScattered clouds.8 mph50%29.71 "HgN/A
12:00 PM95 °FScattered clouds.6 mph50%29.74 "HgN/A
11:30 AM93 °FPartly sunny.5 mph56%29.74 "HgN/A
11:00 AM93 °FPartly sunny.5 mph53%29.77 "HgN/A
10:30 AM93 °FPartly sunny.2 mph56%29.77 "HgN/A
10:00 AM97 °FPartly sunny.3 mph47%29.77 "HgN/A
9:30 AM95 °FPartly sunny.No wind50%29.77 "HgN/A
9:00 AM93 °FPartly sunny.1 mph56%29.77 "HgN/A
8:30 AM91 °FPartly sunny.No wind56%29.77 "HgN/A
8:00 AM90 °FPartly sunny.1 mph63%29.74 "HgN/A
7:30 AM86 °FPartly sunny.2 mph70%29.74 "HgN/A
7:00 AM84 °FPartly sunny.No wind74%29.74 "HgN/A
6:30 AM82 °FBroken clouds.No wind79%29.74 "HgN/A
6:00 AM81 °FScattered clouds.1 mph79%29.71 "HgN/A
5:30 AM81 °FScattered clouds.No wind84%29.71 "HgN/A
5:00 AM81 °FPassing clouds.3 mph84%29.71 "HgN/A
4:30 AM82 °FPassing clouds.1 mph79%29.71 "HgN/A
4:00 AM81 °FPassing clouds.1 mph84%29.68 "HgN/A
3:30 AM82 °FPassing clouds.1 mph79%29.68 "HgN/A
3:00 AM81 °FPassing clouds.No wind84%29.71 "HgN/A
2:00 AM81 °FPassing clouds.1 mph89%29.71 "HgN/A
1:30 AM82 °FPassing clouds.1 mph84%29.71 "HgN/A
1:00 AM82 °FPassing clouds.2 mph79%29.71 "HgN/A
12:30 AM82 °FPassing clouds.1 mph84%29.71 "HgN/A
12:00 AM84 °FPassing clouds.3 mph84%29.74 "HgN/A
11:30 PM
Jul 25
84 °FPassing clouds.5 mph84%29.74 "HgN/A
11:00 PM84 °FPassing clouds.3 mph84%29.77 "HgN/A
10:30 PM84 °FPassing clouds.3 mph84%29.74 "HgN/A
10:00 PM86 °FPassing clouds.2 mph75%29.74 "HgN/A
Weather by CustomWeather, © 2014

See weather overviewHow to use our weather pages